This demonstration page uses our WeatherBlox Daily Observations layout. Learn more.

Left ArrowRight Arrow

41.55636, -103.73856

Hourly Observations for September 28, 2021

Temp ( °F °C ) Dew Point ( °F °C ) Humidity (%) Winds ( mph kmh ) Pressure ( in mb ) Visibility ( mi km ) Precip ( " mm )
12:58 am 00:58 Clear 69 20.4 31 -0.8 24 24 S 23 37 29.74 1007 10 16 N/A
1:58 am 01:58 Clear 67 19.5 31 -0.5 26 26 S 20 31 29.73 1007 10 16 N/A
2:58 am 02:58 Clear 66 19 33 0.3 29 29 S 18 30 29.73 1007 10 16 N/A
3:58 am 03:58 Clear 63 17.4 34 1 33 33 SW 14 22 29.73 1007 10 16 N/A
4:58 am 04:58 Clear 61 16 35 1.7 38 38 SSW 8 13 29.73 1007 10 16 N/A
5:58 am 05:58 Clear 63 17 35 1.5 35 35 SSW 6 9 29.75 1007 10 16 N/A
6:58 am 06:58 Mostly Sunny 61 15.9 35 1.7 39 39 SW 15 24 29.74 1007 10 16 N/A
7:58 am 07:58 Sunny 65 18.4 34 1.3 32 32 SSW 16 26 29.74 1007 10 16 N/A
8:58 am 08:58 Sunny 69 20.8 35 1.5 28 28 SSW 12 19 29.72 1007 10 16 N/A
9:58 am 09:58 Sunny 79 26.1 35 1.6 20 20 SSW 13 20 29.70 1006 10 16 N/A
10:58 am 10:58 Mostly Cloudy 82 28 34 1.1 17 17 S 18 30 29.68 1005 10 16 N/A
11:58 am 11:58 Mostly Sunny 82 27.9 35 1.5 18 18 S 25 41 29.66 1004 10 16 N/A
12:58 pm 12:58 Sunny 85 29.2 36 2 17 17 SSE 26 43 29.62 1003 10 16 N/A
1:58 pm 13:58 Sunny 83 28.6 33 0.7 16 16 S 25 41 29.62 1003 10 16 N/A
2:58 pm 14:58 Sunny 85 29.5 33 0.8 16 16 SSE 21 33 29.59 1002 10 16 N/A
3:58 pm 15:58 Mostly Cloudy 85 29.4 33 0.6 15 15 S 20 31 29.58 1002 10 16 N/A
4:58 pm 16:58 Mostly Cloudy 78 25.6 39 3.8 24 24 ESE 20 31 29.62 1003 10 16 N/A
5:58 pm 17:58 Mostly Cloudy 76 24.3 38 3.2 25 25 SSE 8 13 29.62 1003 10 16 N/A
6:58 pm 18:58 Mostly Cloudy 70 21.1 39 4.1 33 33 SE 13 20 29.64 1004 10 16 N/A
7:58 pm 19:58 Mostly Cloudy with Light Showers 67 19.5 46 7.9 47 47 S 14 22 29.65 1004 10 16 N/A
8:58 pm 20:58 Mostly Cloudy 65 18.6 47 8.4 52 52 SW 12 19 29.65 1004 10 16 N/A
9:58 pm 21:58 Mostly Cloudy 67 19.2 44 6.4 43 43 S 9 15 29.62 1003 10 16 N/A
10:58 pm 22:58 Mostly Cloudy 67 19.6 42 5.6 40 40 S 14 22 29.62 1003 10 16 N/A
11:58 pm 23:58 Mostly Cloudy 67 19.6 42 5.5 40 40 SSE 14 22 29.61 1003 10 16 N/A

Powered by AerisWeather